Weather in Tauranga

New Zealand     37°41′52″S   176°09′29″E
temp.,
°C
wind,
m/s
gust,
m/s
humid.,
%
clouds,
%
prec.,
mm/h
press.,
hPa
HPBL,
m
25 february, thu
thu2501:00+16se129185 0.4 1023115
04:00+15sse1292100 0.1 1022103
07:00+15sse239699 0.1 102283
10:00+19se1280100 0.1 1023385
13:00+21ne3362100 0.2 1022890
16:00+21nne3262100 0.0 1021682
19:00+19n1273100 0.0 1021246
22:00+16sse1189100 0.0 102335
26 february, fri
fri2601:00+15sse129198 0.0 102270
04:00+16s1294100 0.1 102257
07:00+16se1295100 0.4 102183
10:00+19e1284100 0.2 1022356
13:00+21nne3366100 0.3 1020812
16:00+21n3365100 0.1 1019748
19:00+19nne2373100 0.1 1019620
22:00+16ese1188100 0.0 1021217
27 february, sat
sat2701:00+15sse129062 0.0 1021236
04:00+15ssw229211 0.0 101949
07:00+14ssw129214 0.0 101954
10:00+20ne116824 0.0 1019608
13:00+20nne336756 0.1 1018662
16:00+20nne336589 0.0 1016763
19:00+19nne237395 0.0 1016590
22:00+16ene1287100 0.0 1017258
28 february, sun
sun2801:00+15sse1288100 0.0 1017227
04:00+15sse1291100 0.0 1015122
07:00+14sse2293100 0.0 101690
10:00+20e246778 0.0 1016636
13:00+21ne346089 0.1 1016983
16:00+20ne3464100 0.0 1014861
19:00+19ne2473100 0.0 1014595
22:00+16e238996 0.0 1015269
1 march, mon
mon101:00+16e249094 0.3 1015280
04:00+15ese249270 0.3 1014263
07:00+15ese249273 0.6 1014276
10:00+19ese247836 0.3 1014458
13:00+21ene465618 0.4 10131183
16:00+21ne46620 0.0 10121071
19:00+18ne36810 0.3 1011620
22:00+16ne369352 1.6 1013342